FW4559 Weather Reports


time (UTC)temp
F
wind
direction
speed
knots
gust
knots
rain 1hr
in
rain 24hr
in
rain mn
in
humidity
%
barometer
mb
20260510054512 49 1 0.9 1.7 0.00 0.00 0.00 91 1013.5
20260510054012 48 356 0.9 1.7 0.00 0.00 0.00 92 1013.4
20260510053510 48 352 0.0 1.7 0.00 0.00 0.00 92 1013.4
20260510053010 47 352 0.0 0.0 0.00 0.00 0.00 91 1013.3
20260510052509 47 352 0.0 0.9 0.00 0.00 0.00 91 1013.4
20260510052008 48 352 0.0 0.9 0.00 0.00 0.00 90 1013.3
20260510051516 48 352 0.0 0.9 0.00 0.00 0.00 90 1013.3
20260510051007 48 352 0.0 0.9 0.00 0.00 0.00 90 1013.3
20260510050607 48 352 0.0 2.6 0.00 0.00 0.00 90 1013.3
20260510050005 48 343 0.9 2.6 0.00 0.00 0.00 90 1013.4
20260510045508 48 212 0.0 0.9 0.00 0.00 0.00 90 1013.3
20260510045005 48 212 0.0 0.9 0.00 0.00 0.00 90 1013.2
20260510044509 48 212 0.0 0.0 0.00 0.00 0.00 90 1013.2
20260510044005 48 212 0.0 0.0 0.00 0.00 0.00 90 1013.3
20260510043503 48 212 0.0 0.9 0.00 0.00 0.00 89 1013.2
20260510043006 49 212 0.0 0.9 0.00 0.00 0.00 89 1013.2
20260510042501 49 212 0.0 0.9 0.00 0.00 0.00 89 1013.2
20260510042002 49 212 0.0 0.9 0.00 0.00 0.00 88 1013.3
20260510041637 49 212 0.0 0.9 0.00 0.00 0.00 88 1013.2
20260510041102 49 212 0.0 0.9 0.00 0.00 0.00 87 1013.1
20260510040558 49 116 0.0 0.9 0.00 0.00 0.00 87 1013.1
20260510040058 50 116 0.0 0.9 0.00 0.00 0.00 86 1013.1
20260510035557 50 116 0.0 0.9 0.00 0.00 0.00 86 1013.2
20260510035058 50 116 0.0 0.9 0.00 0.00 0.00 85 1013.1
20260510034559 51 116 0.0 0.9 0.00 0.00 0.00 85 1013.2
20260510034059 51 116 0.0 0.9 0.00 0.00 0.00 84 1013.2
20260510033556 51 116 0.0 0.9 0.00 0.00 0.00 83 1013.3
20260510033116 51 116 0.0 0.9 0.00 0.00 0.00 83 1013.2
20260510032556 51 116 0.0 1.7 0.00 0.00 0.00 84 1013.2
20260510032056 51 96 0.0 0.9 0.00 0.00 0.00 83 1013.1
20260510031557 51 96 0.0 1.7 0.00 0.00 0.00 83 1013.2
20260510031055 51 96 0.9 1.7 0.00 0.00 0.00 83 1013.2
20260510030558 52 158 0.0 0.9 0.00 0.00 0.00 81 1013.2
20260510030056 52 96 0.0 1.7 0.00 0.00 0.00 82 1013.1
20260510025556 51 96 0.0 0.9 0.00 0.00 0.00 83 1013.2
20260510025057 52 110 0.0 1.7 0.00 0.00 0.00 82 1013.2
20260510024609 52 117 0.0 1.7 0.00 0.00 0.00 82 1013.2
20260510024054 52 127 0.0 0.9 0.00 0.00 0.00 82 1013.0
20260510023554 52 127 0.0 0.0 0.00 0.00 0.00 81 1013.0
20260510023059 52 127 0.0 0.9 0.00 0.00 0.00 80 1013.0
20260510022554 53 127 0.0 0.9 0.00 0.00 0.00 79 1013.0
20260510022053 53 127 0.0 0.9 0.00 0.00 0.00 79 1012.9
20260510021554 53 127 0.0 0.9 0.00 0.00 0.00 79 1012.8
20260510021053 54 120 0.0 0.9 0.00 0.00 0.00 77 1012.8
20260510020554 54 120 0.0 0.9 0.00 0.00 0.00 76 1012.7
20260510020054 55 120 0.0 0.9 0.00 0.00 0.00 75 1012.6
20260510015555 55 120 0.0 0.9 0.00 0.00 0.00 74 1012.6
20260510015055 56 107 0.0 0.9 0.00 0.00 0.00 73 1012.5
20260510014612 56 107 0.0 0.0 0.00 0.00 0.00 71 1012.3
20260510014052 56 107 0.0 0.9 0.00 0.00 0.00 71 1012.3
20260510013552 57 107 0.0 1.7 0.00 0.00 0.00 70 1012.2
20260510013102 57 107 0.0 1.7 0.00 0.00 0.00 70 1012.2
20260510012555 57 115 0.0 1.7 0.00 0.00 0.00 70 1012.0
20260510012051 57 120 0.9 1.7 0.00 0.00 0.00 70 1011.9
20260510011551 57 113 0.0 0.9 0.00 0.00 0.00 70 1012.0
20260510011050 57 113 0.0 1.7 0.00 0.00 0.00 70 1012.0
20260510010550 58 113 0.0 1.7 0.00 0.00 0.00 69 1011.9
20260510010051 58 98 0.0 2.6 0.00 0.00 0.00 69 1011.7
20260510005551 58 110 0.9 2.6 0.00 0.00 0.00 69 1011.5
20260510005049 58 135 0.9 2.6 0.00 0.00 0.00 68 1011.5
20260510004553 59 129 0.0 0.9 0.00 0.00 0.00 67 1011.4
20260510004049 60 311 0.0 0.9 0.00 0.00 0.00 65 1011.2
20260510003549 60 311 0.0 0.9 0.00 0.00 0.00 64 1011.1
20260510003049 60 338 0.0 1.7 0.00 0.00 0.00 62 1011.0
20260510002548 61 338 0.0 1.7 0.00 0.00 0.00 62 1010.9
20260510002049 61 292 0.9 1.7 0.00 0.00 0.00 61 1010.8
20260510001549 61 300 0.9 1.7 0.00 0.00 0.00 60 1010.8
20260510001050 61 342 0.0 2.6 0.00 0.00 0.00 60 1010.8
20260510000551 62 342 0.0 3.5 0.00 0.00 0.00 60 1010.7
20260510000049 62 1 0.0 4.3 0.00 0.00 0.00 60 1010.8
20260509235549 62 334 1.7 4.3 0.00 0.00 0.00 59 1010.7
20260509235050 62 337 0.9 5.2 0.00 0.00 0.00 59 1010.8
20260509234547 63 332 1.7 7.8 0.00 0.00 0.00 58 1010.9
20260509234048 63 4 2.6 7.8 0.00 0.00 0.00 57 1010.8
20260509233548 63 334 2.6 8.7 0.00 0.00 0.00 56 1010.8
20260509233051 64 318 2.6 8.7 0.00 0.00 0.00 56 1010.6
20260509232547 64 356 1.7 6.1 0.00 0.00 0.00 56 1010.5
20260509232048 64 298 1.7 6.1 0.00 0.00 0.00 55 1010.6
20260509231557 64 346 2.6 5.2 0.00 0.00 0.00 55 1010.6
20260509231046 65 352 1.7 7.8 0.00 0.00 0.00 54 1010.7
20260509230550 65 336 2.6 7.8 0.00 0.00 0.00 54 1010.5
20260509230046 65 229 1.7 7.0 0.00 0.00 0.00 53 1010.5
20260509225545 65 339 2.6 7.0 0.00 0.00 0.00 52 1010.4
20260509225045 65 322 0.9 6.1 0.00 0.00 0.00 52 1010.4
20260509224545 65 315 3.5 6.1 0.00 0.00 0.00 50 1010.5
20260509224045 66 300 0.9 9.6 0.00 0.00 0.00 50 1010.4
20260509223545 66 342 2.6 9.6 0.00 0.00 0.00 49 1010.4
20260509223050 66 21 4.3 9.6 0.00 0.00 0.00 48 1010.2
20260509222549 67 329 5.2 9.6 0.00 0.00 0.00 47 1010.0
20260509222044 67 274 0.9 9.6 0.00 0.00 0.00 47 1010.1
20260509221546 67 261 1.7 8.7 0.00 0.00 0.00 46 1010.1
20260509221043 67 230 1.7 8.7 0.00 0.00 0.00 46 1010.1
20260509220543 67 132 4.3 9.6 0.00 0.00 0.00 46 1010.1
20260509220045 67 311 4.3 11.3 0.00 0.00 0.00 48 1010.0
20260509215547 67 82 4.3 14.8 0.00 0.00 0.00 49 1009.9
20260509215041 67 13 5.2 14.8 0.00 0.00 0.00 48 1009.8
20260509214542 68 41 3.5 8.7 0.00 0.00 0.00 47 1010.1
20260509214043 68 350 4.3 10.4 0.00 0.00 0.00 47 1010.0
20260509213541 68 280 4.3 10.4 0.00 0.00 0.00 48 1010.1
20260509213045 68 215 3.5 9.6 0.00 0.00 0.00 47 1010.1
20260509212540 68 284 3.5 9.6 0.00 0.00 0.00 46 1010.0
20260509212040 68 170 2.6 9.6 0.00 0.00 0.00 47 1009.8
20260509211541 68 129 2.6 9.6 0.00 0.00 0.00 47 1009.7
20260509211040 68 339 4.3 9.6 0.00 0.00 0.00 46 1009.6
20260509210540 69 144 2.6 8.7 0.00 0.00 0.00 45 1009.6
20260509210051 68 216 1.7 9.6 0.00 0.00 0.00 47 1009.7
20260509205539 69 325 4.3 10.4 0.00 0.00 0.00 45 1009.6
20260509205039 69 183 2.6 13.9 0.00 0.00 0.00 45 1009.6
20260509204538 69 135 0.9 9.6 0.00 0.00 0.00 44 1009.5
20260509204039 69 187 1.7 8.7 0.00 0.00 0.00 44 1009.6
20260509203539 68 157 1.7 10.4 0.00 0.00 0.00 46 1009.4
20260509203038 68 218 4.3 10.4 0.00 0.00 0.00 45 1009.3
20260509202540 68 215 2.6 11.3 0.00 0.00 0.00 46 1009.4
20260509202038 68 350 5.2 13.0 0.00 0.00 0.00 45 1009.5
20260509201536 68 297 3.5 13.0 0.00 0.00 0.00 46 1009.4
20260509201035 68 320 2.6 10.4 0.00 0.00 0.00 47 1009.4
20260509200534 68 243 2.6 8.7 0.00 0.00 0.00 58 1009.4
20260509200040 68 127 2.6 7.0 0.00 0.00 0.00 61 1009.3
20260509195538 67 91 0.9 3.5 0.00 0.00 0.00 60 1009.4
20260509195033 68 148 0.0 3.5 0.00 0.00 0.00 60 1009.6
20260509194534 68 183 0.0 1.7 0.00 0.00 0.00 61 1009.5
20260509194035 67 131 0.0 6.1 0.00 0.00 0.00 63 1009.4
20260509193533 66 337 0.9 7.8 0.00 0.00 0.00 64 1009.4
20260509193032 66 103 0.9 5.2 0.00 0.00 0.00 64 1009.4
20260509192531 66 153 0.9 5.2 0.00 0.00 0.00 63 1009.6
20260509192031 66 117 1.7 5.2 0.00 0.00 0.00 63 1009.5
20260509191532 66 138 0.9 5.2 0.00 0.00 0.00 62 1009.6
20260509191035 67 137 1.7 6.1 0.00 0.00 0.00 60 1009.4
20260509190531 67 157 0.0 2.6 0.00 0.00 0.00 61 1009.6
20260509190039 67 62 0.0 2.6 0.00 0.00 0.00 60 1009.6
20260509185534 67 203 0.0 6.1 0.00 0.00 0.00 61 1009.5
20260509185031 67 85 1.7 6.1 0.00 0.00 0.00 59 1009.3
20260509184535 68 168 1.7 4.3 0.00 0.00 0.00 57 1009.4
20260509184029 68 210 0.0 1.7 0.00 0.00 0.00 61 1009.3
20260509183529 67 110 0.0 7.0 0.00 0.00 0.00 61 1009.4
20260509183129 66 145 2.6 7.0 0.00 0.00 0.00 60 1009.3
20260509182529 66 117 1.7 6.1 0.00 0.00 0.00 61 1009.3
20260509182028 66 15 0.9 4.3 0.00 0.00 0.00 61 1009.6
20260509181528 67 57 1.7 4.3 0.00 0.00 0.00 60 1009.5
20260509181028 67 105 0.9 7.0 0.00 0.00 0.00 58 1009.7
20260509180528 68 153 1.7 8.7 0.00 0.00 0.00 57 1009.8
20260509180027 70 111 3.5 8.7 0.00 0.00 0.00 53 1009.7
20260509175525 70 130 0.9 7.8 0.00 0.00 0.00 55 1009.7
20260509175024 70 181 0.9 4.3 0.00 0.00 0.00 55 1009.9
20260509174523 69 113 0.9 6.1 0.00 0.00 0.00 56 1010.1
20260509174022 68 179 2.6 7.0 0.00 0.00 0.00 57 1010.2
20260509173520 67 181 1.7 8.7 0.00 0.00 0.00 59 1010.1
20260509173050 67 162 4.3 8.7 0.00 0.00 0.00 59 1010.0
20260509172519 66 140 2.6 7.0 0.00 0.00 0.00 62 1010.0
20260509172017 66 136 2.6 7.8 0.00 0.00 0.00 62 1010.1
20260509171524 65 158 2.6 7.8 0.00 0.00 0.00 63 1010.2
20260509171014 64 116 2.6 7.0 0.00 0.00 0.00 64 1010.2
20260509170513 64 160 3.5 7.8 0.00 0.00 0.00 65 1010.4
20260509170015 63 207 3.5 7.8 0.00 0.00 0.00 68 1010.4
20260509165512 63 189 3.5 7.8 0.00 0.00 0.00 66 1010.4
20260509165010 63 141 2.6 7.0 0.00 0.00 0.00 66 1010.5
20260509164514 63 212 3.5 7.0 0.00 0.00 0.00 66 1010.6
20260509164012 64 131 2.6 7.0 0.00 0.00 0.00 66 1010.6
20260509163510 63 105 2.6 7.0 0.00 0.00 0.00 65 1010.8
20260509163016 64 206 2.6 7.8 0.00 0.00 0.00 66 1010.7
20260509162509 63 156 2.6 9.6 0.00 0.00 0.00 65 1010.8
20260509162009 63 156 3.5 6.1 0.00 0.00 0.00 64 1010.8
20260509161508 63 147 2.6 8.7 0.00 0.00 0.00 66 1010.9
20260509161010 63 194 3.5 9.6 0.00 0.00 0.00 67 1010.9
20260509160507 63 162 4.3 10.4 0.00 0.00 0.00 66 1011.0
20260509160014 63 86 4.3 10.4 0.00 0.00 0.00 67 1010.9
20260509155506 63 139 2.6 7.0 0.00 0.00 0.00 66 1011.0
20260509155008 63 181 2.6 7.0 0.00 0.00 0.00 65 1010.9
20260509154505 63 191 2.6 6.1 0.00 0.00 0.00 66 1010.9
20260509154005 63 155 2.6 6.1 0.00 0.00 0.00 66 1010.8
20260509153503 63 147 2.6 6.1 0.00 0.00 0.00 67 1010.9
20260509153005 62 127 0.9 5.2 0.00 0.00 0.00 67 1010.8
20260509152502 62 169 2.6 4.3 0.00 0.00 0.00 68 1010.8
20260509152102 61 185 1.7 7.0 0.00 0.00 0.00 69 1010.8
20260509151625 61 145 2.6 7.0 0.00 0.00 0.00 70 1010.8
20260509151058 60 221 0.9 4.3 0.00 0.00 0.00 72 1010.7
20260509150557 60 95 1.7 5.2 0.00 0.00 0.00 71 1010.6
20260509150057 60 130 2.6 7.0 0.00 0.00 0.00 72 1010.6
20260509145556 59 161 3.5 7.0 0.00 0.00 0.00 72 1010.7
20260509145057 59 158 2.6 5.2 0.00 0.00 0.00 72 1010.8
20260509144555 60 165 1.7 5.2 0.00 0.00 0.00 72 1010.9
20260509144055 60 169 0.9 5.2 0.00 0.00 0.00 73 1010.8
20260509143553 59 153 1.7 4.3 0.00 0.00 0.00 73 1010.7
20260509143103 59 155 0.9 6.1 0.00 0.00 0.00 73 1010.8
20260509142553 59 160 1.7 6.1 0.00 0.00 0.00 72 1010.6
20260509142054 59 190 2.6 4.3 0.00 0.00 0.00 72 1010.7
20260509141553 59 130 0.9 4.3 0.00 0.00 0.00 73 1010.8
20260509141052 58 202 0.0 3.5 0.00 0.00 0.00 75 1010.9
20260509140548 58 215 0.9 5.2 0.00 0.00 0.00 76 1011.0
20260509140048 57 144 1.7 7.0 0.00 0.00 0.00 77 1011.2
20260509135552 57 172 2.6 7.0 0.00 0.00 0.00 76 1010.9
20260509135050 57 137 2.6 5.2 0.00 0.00 0.00 76 1010.8
20260509134547 57 153 1.7 5.2 0.00 0.00 0.00 78 1010.8
20260509134047 56 139 1.7 7.8 0.00 0.00 0.00 78 1010.7
20260509133546 57 215 4.3 7.8 0.00 0.00 0.00 77 1010.7
20260509133046 57 166 3.5 6.1 0.00 0.00 0.00 76 1010.7
20260509132544 57 143 2.6 5.2 0.00 0.00 0.00 75 1010.8
20260509132043 57 149 1.7 5.2 0.00 0.00 0.00 76 1010.8
20260509131556 57 210 2.6 5.2 0.00 0.00 0.00 75 1010.8
20260509131042 57 147 1.7 4.3 0.00 0.00 0.00 75 1010.8
20260509130542 57 159 1.7 4.3 0.00 0.00 0.00 76 1011.0
20260509125538 55 203 0.0 1.7 0.00 0.00 0.00 81 1011.5
20260509125038 55 146 0.9 1.7 0.00 0.00 0.00 81 1011.3
20260509124541 54 162 0.0 0.9 0.00 0.00 0.00 83 1011.5
20260509124035 53 10 0.0 0.9 0.00 0.00 0.00 87 1011.7
20260509123534 51 10 0.0 0.9 0.00 0.00 0.00 89 1011.8
20260509123100 50 10 0.0 0.9 0.00 0.00 0.00 90 1011.9
20260509122533 49 10 0.0 0.9 0.00 0.00 0.00 92 1012.0
20260509122033 48 10 0.0 0.9 0.00 0.00 0.00 93 1012.0
20260509121538 48 10 0.0 0.9 0.00 0.00 0.00 95 1011.8
20260509121035 47 10 0.0 1.7 0.00 0.00 0.00 95 1012.0
20260509120535 46 11 0.0 1.7 0.00 0.00 0.00 95 1012.1
20260509120043 45 360 0.0 1.7 0.00 0.00 0.00 95 1011.9
20260509115533 44 1 0.0 1.7 0.00 0.00 0.00 95 1012.1
20260509115033 43 1 0.9 1.7 0.00 0.00 0.00 95 1012.1
20260509114537 43 137 0.0 0.0 0.00 0.00 0.00 95 1012.0
20260509114032 43 137 0.0 0.9 0.00 0.00 0.00 95 1012.0
20260509113532 43 137 0.0 0.9 0.00 0.00 0.00 95 1011.7
20260509113032 43 96 0.0 0.9 0.00 0.00 0.00 95 1011.7
20260509112532 43 96 0.0 1.7 0.00 0.00 0.00 95 1011.7
20260509112032 43 94 0.0 1.7 0.00 0.00 0.00 95 1011.7
20260509111532 43 7 0.0 0.9 0.00 0.00 0.00 95 1011.6
20260509111032 43 7 0.0 0.9 0.00 0.00 0.00 95 1011.7
20260509110531 43 8 0.0 0.9 0.00 0.00 0.00 95 1011.7
20260509110031 43 7 0.0 0.9 0.00 0.00 0.00 95 1011.6
20260509105530 42 7 0.0 0.9 0.00 0.00 0.00 94 1011.5
20260509105029 43 7 0.0 1.7 0.00 0.00 0.00 94 1011.5
20260509104529 43 7 0.0 1.7 0.00 0.00 0.00 95 1011.3
20260509104028 43 99 0.0 0.9 0.00 0.00 0.00 95 1011.4
20260509103528 43 99 0.0 0.0 0.00 0.00 0.00 95 1011.3
20260509103028 43 99 0.0 0.9 0.00 0.00 0.00 95 1011.3
20260509102528 43 99 0.0 0.9 0.00 0.00 0.00 95 1011.2
20260509102028 43 99 0.0 0.9 0.00 0.00 0.00 95 1011.3
20260509101535 43 99 0.0 0.9 0.00 0.00 0.00 94 1011.2
20260509101028 43 99 0.0 0.9 0.00 0.00 0.00 94 1011.2
20260509100526 43 99 0.0 0.9 0.00 0.00 0.00 94 1011.1
20260509100026 43 98 0.0 0.9 0.00 0.00 0.00 93 1011.1
20260509095525 44 99 0.0 0.9 0.00 0.00 0.00 93 1011.0
20260509095023 44 99 0.0 0.9 0.00 0.00 0.00 93 1011.1
20260509094530 45 99 0.0 0.9 0.00 0.00 0.00 92 1011.0
20260509094020 45 98 0.0 0.9 0.00 0.00 0.00 94 1011.0
20260509093520 45 11 0.0 0.9 0.00 0.00 0.00 93 1011.0
20260509093020 45 11 0.0 0.9 0.00 0.00 0.00 93 1011.0
20260509092518 46 11 0.0 0.9 0.00 0.00 0.00 93 1011.0
20260509092018 46 11 0.0 0.9 0.00 0.00 0.00 93 1011.1
20260509091517 46 347 0.9 0.9 0.00 0.00 0.00 92 1011.2
20260509091016 46 347 0.0 0.9 0.00 0.00 0.00 93 1011.3
20260509090518 46 347 0.0 1.7 0.00 0.00 0.00 92 1011.3
20260509090016 46 347 0.0 1.7 0.00 0.00 0.00 92 1011.3
20260509085514 46 347 0.9 1.7 0.00 0.00 0.00 92 1011.3
20260509085013 46 98 0.0 0.9 0.00 0.00 0.00 91 1011.2
20260509084512 47 98 0.0 0.9 0.00 0.00 0.00 91 1011.3
20260509084014 47 98 0.0 1.7 0.00 0.00 0.00 90 1011.4
20260509083510 47 122 0.0 1.7 0.00 0.00 0.00 91 1011.2
20260509083009 47 143 0.0 0.0 0.00 0.00 0.00 90 1011.3
20260509082514 48 158 0.0 0.9 0.00 0.00 0.00 89 1011.3
20260509082007 48 158 0.0 2.6 0.00 0.00 0.00 89 1011.4
20260509081507 48 174 0.0 2.6 0.00 0.00 0.00 89 1011.4
20260509081007 49 254 0.0 3.5 0.00 0.00 0.00 89 1011.5
20260509080506 49 126 0.9 3.5 0.00 0.00 0.00 89 1011.5
20260509080006 48 147 1.7 3.5 0.00 0.00 0.00 89 1011.5
20260509075505 48 159 0.9 3.5 0.00 0.00 0.00 89 1011.6
20260509075006 48 165 1.7 3.5 0.00 0.00 0.00 90 1011.6
20260509074503 48 143 0.0 1.7 0.00 0.00 0.00 89 1011.8
20260509074002 48 138 0.0 0.9 0.00 0.00 0.00 88 1011.8
20260509073501 48 138 0.0 0.9 0.00 0.00 0.00 88 1011.8
20260509073001 49 138 0.0 0.9 0.00 0.00 0.00 87 1011.8
20260509072600 49 138 0.0 0.9 0.00 0.00 0.00 87 1011.9
20260509072100 49 138 0.0 0.9 0.00 0.00 0.00 86 1011.9
20260509071603 49 138 0.0 0.9 0.00 0.00 0.00 86 1011.9
20260509071056 50 138 0.0 1.7 0.00 0.00 0.00 84 1012.1
20260509070556 50 138 0.0 2.6 0.00 0.00 0.00 85 1012.1
20260509070056 50 143 0.9 5.2 0.00 0.00 0.00 85 1012.1
20260509065555 50 182 1.7 5.2 0.00 0.00 0.00 85 1012.1
20260509065054 50 210 0.0 2.6 0.00 0.00 0.00 85 1012.0
20260509064558 50 152 0.0 1.7 0.00 0.00 0.00 84 1012.0
20260509064053 51 136 0.9 6.1 0.00 0.00 0.00 84 1012.1
20260509063551 51 135 1.7 6.1 0.00 0.00 0.00 84 1012.2
20260509063050 51 163 0.9 2.6 0.00 0.00 0.00 83 1012.4
20260509062552 51 145 0.9 3.5 0.00 0.00 0.00 83 1012.6
20260509062049 51 140 1.7 3.5 0.00 0.00 0.00 83 1012.6
20260509061601 51 191 1.7 5.2 0.00 0.00 0.00 83 1012.8
20260509061046 51 210 1.7 5.2 0.00 0.00 0.00 82 1012.9
20260509060546 52 136 0.9 4.3 0.00 0.00 0.00 82 1013.0
20260509060046 52 160 0.9 6.1 0.00 0.00 0.00 82 1013.1
20260509055546 52 150 1.7 6.1 0.00 0.00 0.00 82 1013.2
20260509055045 52 226 2.6 6.1 0.00 0.00 0.00 82 1013.2